Wappingers Falls, NY

2:35 AM EST on December 08, 2016 (GMT -0500)
Dutchess County

Weather History for KPOU - March, 2013

Change the Weather History Date:

Friday, March 22, 2013

  Actual Average Record
Temperature  
Mean Temperature 31 °F 39 °F  
Max Temperature 40 °F 50 °F 79 °F (2012)
Min Temperature 22 °F 28 °F 5 °F (1956)
Degree Days  
Heating Degree Days 34 26  
Month to date heating degree days 638 656  
Since 1 July heating degree days 4759 5227  
Cooling Degree Days 0 0  
Month to date cooling degree days 0 0  
Year to date cooling degree days 0 0  
Moisture  
Dew Point 18 °F    
Average Humidity 56    
Maximum Humidity 68    
Minimum Humidity 44    
Precipitation  
Precipitation T in 0.13 in 2.22 in (1977)
Month to date precipitation 1.31 2.50  
Year to date precipitation 4.97 8.24  
Sea Level Pressure  
Sea Level Pressure 29.75 in    
Wind  
Wind Speed 9 mph (WSW)    
Max Wind Speed 21 mph    
Max Gust Speed 25 mph    
Visibility 10 miles    
Events Snow    
T = Trace of Precipitation, MM = Missing Value Source: NWS Daily Summary

Daily Weather History Graph

Daily Weather History Graph

Search for Another Location

Airport or City:

Trip Planner

Search our weather history database for the weather conditions in past years. The results will help you decide how hot, cold, wet, or windy it might be!

Date:

Astronomy

Mar. 22, 2013 Rise Set
Actual Time 6:55 AM EDT 7:10 PM EDT
Civil Twilight 6:27 AM EDT 7:37 PM EDT
Nautical Twilight 5:54 AM EDT 8:10 PM EDT
Astronomical Twilight 5:21 AM EDT 8:43 PM EDT
Moon 2:31 PM EDT (3/22) 3:57 AM EDT (3/22)
Length of Visible Light 13h 10m
Length of Day
12h 15m
Waxing Gibbous, 77% of the Moon is Illuminated
Mar 22
Waxing Gibbous
Mar 27
Full
Apr 3
Last Quarter
Apr 10
New
Apr 18
First Quarter

Hourly Weather History & Observations

Time (EDT) Temp. Windchill Dew Point Humidity Pressure Visibility Wind Dir Wind Speed Gust Speed Precip Events Conditions
12:53 AM 28.0 °F 22.8 °F 12.0 °F 51% 29.71 in 10.0 mi WSW 4.6 mph - N/A   Clear
1:53 AM 28.0 °F 24.2 °F 12.0 °F 51% 29.72 in 10.0 mi WSW 3.5 mph - N/A   Partly Cloudy
2:53 AM 27.0 °F 23.0 °F 12.0 °F 53% 29.71 in 10.0 mi WSW 3.5 mph - N/A   Partly Cloudy
3:53 AM 26.1 °F 20.5 °F 12.9 °F 58% 29.70 in 10.0 mi WSW 4.6 mph - N/A   Clear
4:53 AM 26.1 °F - 14.0 °F 60% 29.70 in 10.0 mi Calm Calm - N/A   Clear
5:53 AM 24.1 °F - 16.0 °F 71% 29.71 in 10.0 mi Calm Calm - N/A   Partly Cloudy
6:53 AM 26.1 °F - 16.0 °F 66% 29.72 in 10.0 mi Calm Calm - N/A   Partly Cloudy
7:53 AM 28.0 °F 24.2 °F 17.1 °F 63% 29.73 in 10.0 mi SSW 3.5 mph - N/A   Clear
8:53 AM 30.0 °F 21.7 °F 19.0 °F 64% 29.75 in 10.0 mi SSW 9.2 mph - N/A   Clear
9:53 AM 34.0 °F 26.0 °F 19.0 °F 54% 29.74 in 10.0 mi WSW 10.4 mph - N/A   Partly Cloudy
10:53 AM 35.1 °F 26.4 °F 17.1 °F 48% 29.74 in 10.0 mi WNW 12.7 mph 20.7 mph N/A   Mostly Cloudy
11:53 AM 36.0 °F 27.5 °F 18.0 °F 48% 29.75 in 10.0 mi West 12.7 mph 19.6 mph N/A   Overcast
12:53 PM 39.0 °F 31.8 °F 19.0 °F 45% 29.75 in 10.0 mi West 11.5 mph 25.3 mph N/A   Overcast
1:53 PM 39.0 °F 31.0 °F 19.0 °F 45% 29.74 in 10.0 mi WSW 13.8 mph 23.0 mph N/A   Overcast
2:53 PM 37.0 °F 28.1 °F 19.9 °F 50% 29.74 in 3.0 mi West 15.0 mph 23.0 mph 0.00 in Snow Light Snow
3:53 PM 39.0 °F 32.3 °F 19.0 °F 45% 29.73 in 9.0 mi West 10.4 mph - 0.00 in   Unknown
4:53 PM 37.9 °F 30.0 °F 19.9 °F 48% 29.75 in 10.0 mi West 12.7 mph 23.0 mph 0.00 in   Overcast
5:53 PM 39.0 °F 30.3 °F 19.0 °F 45% 29.76 in 10.0 mi West 16.1 mph 21.9 mph N/A   Overcast
6:53 PM 37.9 °F 29.6 °F 21.0 °F 51% 29.78 in 10.0 mi West 13.8 mph 23.0 mph N/A   Overcast
7:53 PM 37.0 °F 28.9 °F 19.9 °F 50% 29.81 in 10.0 mi West 12.7 mph - N/A   Overcast
8:53 PM 36.0 °F 29.0 °F 21.0 °F 55% 29.84 in 10.0 mi West 9.2 mph - N/A   Overcast
9:53 PM 36.0 °F 28.5 °F 21.9 °F 57% 29.84 in 10.0 mi West 10.4 mph - N/A   Mostly Cloudy
10:53 PM 36.0 °F 28.5 °F 21.9 °F 57% 29.83 in 10.0 mi West 10.4 mph - N/A   Overcast
11:53 PM 35.1 °F 28.6 °F 21.0 °F 57% 29.83 in 10.0 mi West 8.1 mph - N/A   Scattered Clouds